Regional Weather Roundup
Issued by NWS Newport/Morehead, NC

Current Version | Previous Version | Text Only | Print | Product List | Glossary On
Versions: 1 2 3 4 5 6 7 8 9 10 11 12 13 14 15 16 17 18 19 20 21 22 23 24 25 26 27 28 29 30 31 32 33 34 35 36 37 38 39 40 41 42 43 44 45 46 47 48 49 50
000 ASUS42 KMHX 211125 RWRMHX WEATHER ROUNDUP FOR EASTERN NORTH CAROLINA NATIONAL WEATHER SERVICE NEWPORT/MOREHEAD CITY NC 700 AM EDT FRI JUL 21 2017 NOTE: "FAIR" INDICATES FEW OR NO CLOUDS BELOW 12,000 FEET WITH NO SIGNIFICANT WEATHER AND/OR OBSTRUCTIONS TO VISIBILITY NCZ015>017-031-032-045>047-102-103-211200- NORTH COAST CITY SKY/WX TMP DP RH WIND PRES REMARKS EDENTON CLEAR 79 75 88 CALM 29.98S ELIZABETH CITY CLEAR 77 76 96 S6 29.97R KITTY HAWK MOSUNNY 78 74 86 CALM 29.97R MANTEO SUNNY 78 74 88 W6 29.99R $$ NCZ045>047-081-094-103-104-211200- CENTRAL COAST CITY SKY/WX TMP DP RH WIND PRES REMARKS FRISCO CLEAR 79 75 87 SW6 30.00R $$ NCZ095-097-098-100-101-211200- SOUTHERN COAST CITY SKY/WX TMP DP RH WIND PRES REMARKS BEAUFORT CLEAR 81 79 94 SW7 30.00R CEDAR ISLAND NOT AVBL JACKSONVILLE CLEAR 76 76 100 W7 30.00R PINEY ISLAND MOSUNNY N/A N/A N/A SW5 30.00R WILMINGTON CLEAR 77 75 93 SW6 30.01R $$ NCZ011>013-027>030-043-044-078>080-089-090>093-098-211200- COASTAL PLAIN CITY SKY/WX TMP DP RH WIND PRES REMARKS AHOSKIE N/A 74 73 97 CALM 29.97R CLINTON CLEAR 74 74 100 CALM 30.01R ELIZABETHTOWN NOT AVBL GOLDSBORO CLEAR 76 76 100 SW5 29.98R GREENVILLE CLEAR 77 77 100 SW5 30.00S HAVELOCK NOT AVBL KENANSVILLE CLEAR 75 73 94 SW5 30.01R FOG KINSTON CLEAR 75 73 94 SW5 30.00R NEW BERN CLEAR 75 75 100 SW6 30.01R FOG RICHLANDS PTCLDY 75 75 100 SW5 30.02R FOG ROCKY MOUNT CLEAR 75 75 100 S5 29.98R FOG WASHINGTON CLEAR 76 74 93 SW6 29.99R WHITEVILLE CLEAR 75 73 93 CALM 30.02R $$ AMZ130-135-150-152-154-156-158-170-250-252-270-ANZ085-086-088-633-658-670-211200- MARINE OBSERVATIONS STATION/POSITION TIME TEMP WIND PRES WAVE SWELL AIR SEA DIR/SP/G HT/PER HT/PER (UTC) (F) (DEG/KT/KT) (MB) (FT/S) (FT/S) CHESAPEAKE LIGHT NOT AVBL 64 E VA BEACH 1050 80 80 220/ 10/ 12 1015.0 3/ 4 2/ 8 DUCK 1100 79 59 230/ 10/ 11 1014.6 2 E DUCK 1100 63 N/A 2/14 2/14 OREGON INLET 1100 80 81 250/ 8/ 11 1015.1 13E OREGON INLT 1048 78 N/A 2/13 2/13 HATTERAS CG 1100 79 79 230/ 5/ 7 1015.7 DIAMOND BUOY 1050 82 84 260/ 10/ 14 1015.5 3/ 4 2/ 8 CAPE LOOKOUT 1100 80 240/ 7/ 10 1015.7 BEAUFORT LAB 1100 80 79 230/ 3/ 7 1015.3 30 SE NEW RVR IN 1108 80 81 260/ 10/ 12 1016.5 30 SE NEW RVR IN 1113 81 N/A 3/15 2/15 27 SE WRIGHTSVLE 1108 81 81 240/ 12/ 16 1016.3 5 SE WRIGHTSVLE 1108 80 81 240/ 10/ 12 1016.2 225 S CAPE HAT 1050 81 83 230/ 12/ 14 1017.5 3/ 8 3/ 8 41 SE CHARLESTON 1110 82 83 250/ 10/ 12 1016.5 $$

USA.gov is the U.S. government's official web portal to all federal, state and local government web resources and services.